Wind_Speed
31 34 31 31 32 27 20 18 18 19 26 24 21 18 16 13 11 11 11 10 10 10 9 9 9 10 10 10 11 10 9 9 9 8 7 7 5 4 4 4 5 7 7 7
37 35 32 35 35 34 26 24 21 17 26 21 20 18 19 17 14 14 13 11 10 9 9 9 9 11 12 12 11 11 11 11 10 9 9 9 8 8 7 8 8 9 11 13
34 31 33 38 39 39 32 27 23 22 25 27 22 20 22 23 19 17 16 14 12 12 10 9 9 10 11 12 12 12 11 12 11 11 10 10 10 11 12 12 13 14 16 18
30 35 38 39 43 41 35 31 26 25 37 25 27 21 28 25 21 19 17 15 13 12 13 13 12 12 12 13 12 11 12 12 11 11 12 12 13 14 15 16 18 19 20 17
25 33 38 42 37 43 36 29 30 27 29 23 28 26 22 23 22 23 17 15 14 15 16 16 16 16 14 14 14 14 13 14 14 13 14 14 16 17 19 21 22 20 17 16
27 29 38 42 42 43 37 32 32 31 32 38 30 33 25 28 23 24 21 20 20 19 19 19 17 16 16 16 15 15 16 17 16 15 16 17 19 22 24 24 19 16 16 15
26 29 32 42 44 43 44 38 38 36 39 39 29 40 26 26 27 23 19 20 25 22 23 22 20 16 13 13 19 19 18 20 20 18 18 20 21 23 22 18 17 17 18 17
32 33 32 36 43 46 49 47 44 43 35 33 31 37 36 30 25 17 19 18 21 30 26 21 14 14 11 7 8 11 17 19 19 20 20 20 22 19 16 17 19 19 17 16
36 35 32 33 39 47 47 54 42 36 32 32 31 32 34 31 31 34 33 24 25 32 28 22 14 12 11 10 11 13 16 18 21 20 21 20 17 17 18 15 13 14 15 14
37 29 32 33 38 45 52 42 48 48 45 41 36 33 30 35 40 31 31 28 27 26 28 24 18 15 13 12 12 12 17 17 18 22 19 16 13 12 12 12 13 11 16 16
41 38 29 32 40 40 51 57 47 45 47 45 39 35 32 30 29 26 32 26 22 21 25 20 19 19 16 16 13 11 16 18 13 14 14 13 14 13 14 10 11 16 17 20
42 41 38 35 34 35 42 49 50 50 50 49 44 39 30 30 30 23 22 19 20 21 22 27 24 24 21 17 16 13 15 17 16 17 15 15 15 14 14 14 17 23 21 22
40 45 35 35 30 39 44 46 49 51 43 51 50 46 33 25 26 27 29 29 31 22 29 27 32 28 25 19 19 18 18 17 17 17 17 18 17 18 19 22 22 21 24 29
45 38 46 39 37 28 33 38 45 46 58 52 51 42 38 39 31 33 37 29 29 31 31 33 34 35 31 23 19 23 22 26 24 22 22 19 19 21 23 23 21 24 29 28
49 48 40 43 32 28 32 35 37 48 51 53 48 46 46 39 39 36 34 31 32 32 31 25 25 35 31 27 25 22 23 29 26 25 21 22 23 22 19 22 24 27 31 36
50 49 45 40 32 34 33 33 35 36 47 50 48 49 44 44 38 34 41 47 33 32 27 27 27 29 35 29 28 25 24 25 28 25 25 25 21 23 23 24 28 31 36 39
52 47 48 49 36 31 37 41 38 37 36 38 50 57 48 47 47 47 51 47 44 34 32 32 30 28 32 30 31 30 28 27 28 27 25 26 25 25 24 27 31 35 39 41
46 53 44 39 32 39 40 29 34 37 38 37 39 38 42 53 61 55 49 50 51 43 35 35 35 31 36 34 33 32 33 31 30 26 26 25 25 27 29 32 36 39 43 49
51 45 42 39 37 30 34 27 34 35 38 36 37 37 40 39 39 46 57 55 56 48 40 37 43 34 39 41 38 36 35 36 35 28 29 24 26 31 33 36 41 44 47 53
59 52 43 37 40 38 33 42 34 34 41 38 36 34 35 35 40 50 45 44 46 50 40 43 47 39 38 42 43 38 37 37 36 35 33 36 36 38 39 41 44 47 51 53
59 59 56 42 36 40 42 43 41 43 33 36 34 34 35 38 40 34 29 35 47 45 38 46 48 44 40 42 45 37 37 37 38 38 41 40 40 42 43 47 50 54 56 57
57 59 56 46 42 36 41 42 41 37 39 34 26 26 27 27 32 32 43 47 40 38 41 46 48 46 42 43 41 37 33 37 40 44 47 45 46 40 47 45 49 54 56 57
52 55 46 35 38 45 49 44 39 36 34 27 26 28 27 32 37 46 47 41 35 38 45 49 50 46 45 43 42 40 37 39 43 48 51 55 43 42 46 46 49 51 54 56
42 40 42 44 48 52 47 52 30 36 36 37 30 30 33 34 36 34 33 34 36 39 45 48 47 46 44 48 41 40 43 47 50 51 55 50 45 44 46 49 53 53 54 55
48 51 44 56 51 51 49 36 37 32 34 36 32 37 35 35 32 33 36 35 34 34 41 46 46 43 43 45 44 46 48 50 50 51 47 47 47 46 51 54 55 54 53 53
53 47 49 29 56 51 42 37 33 32 34 32 32 34 31 35 36 32 38 36 36 38 38 41 44 46 48 45 46 50 50 49 49 47 48 48 52 53 54 57 58 58 57 59
Wind_Direction
226 225 223 222 221 200 200 219 226 213 257 238 221 197 223 216 207 201 188 183 183 177 188 200 203 208 214 221 228 234 236 233 232 243 253 237 234 244 266 280 293 303 309 309
225 229 227 221 218 207 195 215 221 225 234 233 225 230 240 231 222 209 204 191 187 188 192 194 206 220 225 228 235 242 236 232 242 248 248 240 245 258 271 279 288 297 305 309
233 234 230 224 217 216 212 205 217 219 223 236 211 223 234 237 224 216 208 202 192 196 203 208 213 220 229 230 230 234 237 240 245 256 252 253 263 271 273 278 285 289 292 296
230 227 227 228 224 220 220 209 208 212 236 214 231 223 241 245 233 229 222 218 216 212 218 225 226 231 241 244 249 243 239 241 244 251 254 259 266 271 277 283 287 292 296 294
246 230 228 230 230 225 219 214 211 214 226 236 233 233 240 221 241 239 230 222 224 228 230 234 237 239 242 247 245 245 247 251 252 252 260 269 274 279 283 284 289 293 292 292
246 234 224 232 229 226 222 213 220 223 223 235 223 239 227 245 209 246 249 239 237 239 232 234 239 248 252 251 246 244 244 248 252 257 262 270 278 283 282 284 287 289 288 292
248 248 235 227 228 226 218 215 216 221 227 228 229 238 210 229 246 250 244 246 267 257 240 248 243 241 251 261 257 256 258 257 252 251 261 271 279 285 282 279 286 291 292 293
247 244 244 234 234 225 223 217 215 220 224 230 227 227 239 239 217 228 223 232 244 269 256 260 255 252 246 267 284 260 252 252 251 249 258 265 277 280 277 280 283 285 289 301
254 245 240 239 234 226 221 222 220 224 233 232 234 239 230 228 235 230 226 225 249 253 249 256 240 249 259 268 284 269 264 256 243 240 251 264 263 273 276 282 291 311 309 309
242 236 240 239 234 228 218 226 217 219 222 230 234 232 235 242 242 227 231 233 232 237 250 254 237 244 272 282 275 283 274 262 243 235 247 245 248 246 265 284 297 318 329 313
237 236 230 224 239 237 225 215 222 226 224 226 232 233 234 244 247 241 228 233 233 242 251 242 240 249 263 280 271 281 281 262 241 215 220 224 236 261 277 290 319 320 328 325
235 234 232 232 227 237 229 225 217 223 224 226 228 231 238 227 241 221 215 219 235 238 240 262 249 256 263 271 262 274 269 250 225 219 213 230 251 263 275 291 314 318 324 326
226 228 224 229 221 227 238 226 221 224 230 230 228 230 210 221 229 239 223 207 209 223 223 224 255 250 259 266 267 268 265 247 236 235 234 246 250 266 287 299 308 316 325 332
220 224 231 230 239 232 230 228 219 222 229 231 232 229 225 231 237 220 228 215 218 232 235 239 245 250 256 254 265 268 259 248 253 253 253 258 266 284 294 303 314 324 325 326
226 226 223 228 214 228 228 231 228 222 228 230 231 236 231 232 236 240 247 231 219 225 240 245 241 241 241 250 264 267 249 249 259 262 276 287 290 289 296 304 310 315 318 319
226 227 222 223 226 220 219 231 242 236 227 232 233 231 230 232 229 229 231 236 232 232 238 239 225 238 239 244 258 261 261 253 260 271 283 288 280 283 296 307 313 315 315 316
223 224 223 227 219 224 229 221 223 232 243 242 235 236 229 221 224 232 239 238 239 245 245 237 229 236 238 241 252 263 270 266 264 275 276 277 279 285 292 299 301 305 305 303
216 223 221 220 223 227 234 240 242 240 238 238 248 250 243 236 231 225 228 243 248 248 242 245 230 231 239 239 248 256 263 266 266 269 270 271 289 292 296 298 299 299 304 305
210 213 219 215 215 234 237 220 223 224 231 239 238 238 246 243 240 237 238 244 251 248 238 242 237 229 234 242 244 252 260 262 264 266 262 270 284 288 293 296 298 301 305 303
215 216 211 221 214 224 226 245 240 235 240 235 235 232 233 238 239 244 245 237 241 244 233 224 232 230 233 234 240 247 253 258 264 269 273 275 281 289 291 293 299 303 307 307
213 217 220 216 222 221 238 235 235 242 243 241 245 245 242 226 235 238 236 234 233 235 230 220 227 228 233 230 239 241 249 257 261 269 274 274 277 283 288 292 295 300 302 304
215 217 219 214 217 223 228 237 242 241 248 243 249 247 242 239 244 226 216 223 229 229 216 217 220 225 230 232 236 243 252 258 264 269 269 269 267 280 284 290 294 295 297 299
217 220 213 221 230 229 230 238 238 241 236 249 248 234 238 236 235 228 225 224 223 217 209 213 217 222 228 231 236 243 248 256 260 261 261 265 278 280 289 292 293 293 291 294
210 216 209 216 221 225 232 233 242 253 246 249 247 225 236 236 236 232 224 212 210 208 206 210 218 223 230 234 241 247 249 252 257 261 263 275 287 286 288 287 291 295 295 294
205 194 197 216 220 227 234 239 248 254 249 245 242 224 231 231 232 219 207 206 210 209 209 213 219 226 231 237 242 244 246 252 258 264 272 277 283 286 284 287 288 291 291 294
197 187 194 206 205 224 231 239 247 247 248 249 220 222 231 225 228 225 212 212 217 215 212 218 226 229 231 234 240 242 249 254 254 266 270 279 277 282 285 285 284 287 288 292
Height
5871 5872 5873 5879 5885 5891 5901 5907 5908 5909 5904 5905 5906 5909 5907 5906 5907 5907 5906 5907 5908 5908 5910 5911 5911 5912 5914 5915 5916 5917 5918 5919 5920 5920 5921 5922 5922 5923 5924 5925 5925 5925 5924 5923
5865 5866 5874 5878 5882 5887 5893 5902 5906 5908 5905 5903 5907 5909 5910 5905 5906 5906 5906 5906 5907 5908 5910 5910 5911 5912 5913 5914 5915 5916 5917 5918 5918 5919 5920 5921 5922 5922 5923 5923 5923 5923 5922 5920
5861 5869 5871 5873 5877 5881 5887 5896 5904 5908 5906 5902 5907 5904 5909 5907 5904 5905 5905 5905 5905 5906 5908 5910 5911 5911 5912 5913 5913 5914 5915 5916 5917 5918 5919 5920 5920 5921 5921 5921 5920 5920 5919 5917
5853 5860 5864 5866 5871 5877 5882 5889 5897 5903 5895 5897 5900 5906 5903 5906 5903 5903 5903 5904 5905 5905 5906 5908 5909 5909 5910 5910 5911 5912 5913 5914 5915 5916 5917 5918 5919 5919 5918 5918 5917 5916 5915 5913
5849 5851 5857 5860 5867 5872 5878 5887 5891 5896 5900 5899 5899 5901 5902 5900 5902 5901 5902 5902 5903 5904 5905 5906 5907 5907 5907 5908 5908 5909 5911 5912 5913 5914 5915 5916 5916 5915 5915 5913 5913 5911 5910 5909
5841 5844 5848 5854 5861 5865 5875 5881 5886 5890 5892 5888 5896 5893 5900 5888 5900 5902 5902 5900 5900 5901 5902 5903 5903 5904 5905 5905 5905 5906 5907 5908 5910 5911 5912 5913 5913 5912 5910 5909 5908 5908 5907 5907
5834 5836 5841 5844 5850 5857 5863 5871 5876 5880 5880 5882 5889 5893 5888 5901 5898 5897 5899 5900 5898 5898 5899 5900 5901 5901 5901 5901 5901 5902 5903 5904 5905 5907 5909 5909 5908 5907 5906 5905 5905 5905 5905 5905
5825 5828 5832 5837 5839 5848 5852 5860 5864 5869 5875 5881 5885 5881 5888 5892 5892 5893 5894 5899 5897 5894 5896 5897 5898 5899 5899 5898 5898 5898 5898 5899 5901 5903 5904 5904 5903 5903 5902 5902 5902 5902 5901 5901
5814 5819 5823 5825 5831 5836 5844 5845 5862 5869 5873 5875 5878 5881 5882 5879 5884 5888 5887 5891 5893 5892 5892 5892 5894 5896 5896 5896 5895 5894 5894 5894 5896 5897 5898 5900 5900 5899 5899 5899 5900 5900 5899 5899
5808 5811 5813 5817 5820 5825 5830 5847 5850 5853 5860 5863 5870 5874 5875 5877 5876 5878 5882 5885 5888 5888 5886 5888 5890 5891 5892 5893 5892 5891 5890 5890 5890 5891 5894 5895 5896 5896 5896 5898 5899 5897 5897 5895
5797 5800 5807 5809 5808 5817 5820 5825 5836 5847 5851 5855 5862 5864 5872 5871 5868 5869 5874 5879 5884 5884 5883 5883 5885 5886 5887 5888 5889 5888 5887 5886 5887 5888 5890 5892 5893 5893 5894 5896 5895 5893 5893 5892
5783 5789 5792 5798 5804 5805 5809 5817 5827 5831 5837 5843 5851 5859 5867 5866 5865 5867 5872 5878 5880 5880 5881 5879 5880 5881 5882 5884 5885 5886 5885 5884 5885 5885 5887 5889 5890 5890 5890 5892 5891 5889 5889 5887
5771 5775 5783 5787 5796 5795 5795 5803 5813 5823 5832 5830 5838 5846 5857 5855 5860 5861 5864 5867 5871 5874 5872 5875 5874 5876 5878 5880 5881 5882 5882 5882 5882 5884 5885 5886 5886 5887 5887 5888 5888 5885 5884 5881
5757 5764 5769 5776 5784 5792 5790 5792 5801 5811 5814 5820 5823 5839 5846 5850 5851 5853 5855 5859 5864 5865 5866 5868 5869 5870 5873 5875 5876 5877 5878 5878 5879 5881 5882 5882 5882 5883 5883 5882 5881 5880 5878 5878
5745 5750 5760 5765 5775 5781 5786 5786 5790 5794 5803 5809 5819 5826 5834 5841 5845 5847 5848 5851 5854 5857 5857 5860 5862 5864 5867 5869 5870 5872 5872 5874 5874 5875 5876 5877 5878 5878 5877 5876 5876 5875 5873 5870
5732 5739 5749 5754 5763 5768 5775 5781 5782 5784 5790 5796 5805 5809 5823 5830 5834 5835 5839 5841 5845 5848 5851 5854 5854 5857 5860 5863 5864 5865 5867 5869 5869 5870 5871 5872 5873 5873 5872 5871 5870 5869 5866 5864
5720 5729 5735 5742 5752 5760 5762 5765 5772 5778 5781 5783 5786 5793 5807 5811 5817 5824 5828 5830 5832 5839 5843 5846 5847 5850 5853 5855 5856 5858 5860 5861 5863 5864 5865 5866 5868 5868 5867 5866 5864 5862 5859 5857
5707 5715 5726 5735 5743 5745 5750 5760 5763 5766 5771 5777 5781 5785 5788 5792 5800 5807 5812 5817 5821 5828 5833 5837 5838 5841 5844 5847 5848 5851 5852 5854 5856 5859 5860 5862 5861 5861 5860 5859 5857 5854 5853 5850
5694 5706 5716 5724 5731 5739 5742 5749 5751 5753 5758 5765 5770 5775 5779 5781 5785 5788 5795 5805 5809 5815 5822 5827 5828 5832 5835 5839 5841 5843 5846 5847 5849 5853 5855 5855 5854 5854 5853 5852 5849 5847 5845 5842
5685 5694 5707 5716 5722 5729 5742 5733 5740 5744 5747 5755 5755 5757 5764 5770 5772 5773 5783 5791 5797 5801 5809 5814 5818 5823 5826 5831 5833 5837 5839 5841 5843 5845 5847 5846 5846 5846 5845 5843 5841 5840 5837 5833
5672 5681 5691 5706 5713 5722 5714 5722 5731 5733 5742 5740 5744 5748 5751 5753 5759 5769 5775 5778 5782 5788 5797 5802 5809 5814 5818 5822 5825 5829 5831 5833 5835 5836 5837 5837 5837 5837 5836 5835 5833 5830 5826 5822
5665 5673 5682 5697 5706 5711 5708 5715 5719 5723 5727 5731 5734 5738 5741 5746 5749 5755 5756 5762 5770 5777 5784 5791 5798 5803 5809 5813 5818 5821 5824 5826 5827 5827 5827 5828 5827 5828 5827 5825 5823 5819 5815 5810
5660 5667 5682 5693 5697 5697 5698 5705 5711 5716 5717 5720 5725 5729 5733 5735 5737 5737 5742 5751 5758 5766 5772 5780 5787 5794 5800 5805 5808 5812 5814 5816 5817 5818 5817 5815 5816 5817 5815 5812 5810 5807 5803 5798
5660 5668 5675 5676 5678 5682 5690 5695 5700 5706 5708 5710 5715 5719 5723 5724 5726 5730 5735 5741 5748 5755 5763 5771 5779 5785 5791 5796 5799 5802 5804 5806 5806 5808 5807 5807 5806 5804 5802 5800 5798 5795 5791 5786
5641 5646 5663 5661 5662 5672 5679 5686 5694 5695 5697 5700 5704 5709 5713 5717 5719 5722 5727 5733 5740 5746 5754 5761 5770 5776 5781 5786 5789 5792 5794 5795 5796 5798 5797 5796 5794 5792 5790 5788 5785 5782 5778 5773
5626 5634 5647 5628 5653 5663 5674 5679 5683 5686 5688 5692 5695 5701 5704 5710 5712 5717 5722 5727 5733 5739 5746 5753 5760 5766 5770 5774 5778 5781 5782 5783 5784 5784 5784 5784 5781 5779 5777 5774 5771 5767 5764 5762